This is the latest recevied weather packets stored in our database for station/object NK7I. If no packets are shown the sender has not sent any weather packets the latest 10 day(s).
| Time | Temp. | Humidity | Pressure | Rain* | Wind** | Luminosity | Snow |
|---|---|---|---|---|---|---|---|
| 1777580483 | 21.67° C | 28% | 1020 hPa | 0 mm | - | 1257 W/m² | - |
| 1777580182 | 21.11° C | 30% | 1020.1 hPa | 0 mm | - | 1262 W/m² | - |
| 1777579882 | 21.11° C | 28% | 1020.1 hPa | 0 mm | - | 1271 W/m² | - |
| 1777579582 | 20.56° C | 31% | 1020.2 hPa | 0 mm | - | 1273 W/m² | - |
| 1777579282 | 20.56° C | 31% | 1020.3 hPa | 0 mm | - | 1278 W/m² | - |
| 1777578983 | 20.56° C | 34% | 1020.4 hPa | 0 mm | - | 1283 W/m² | - |
| 1777578682 | 20.56° C | 42% | 1020.6 hPa | 0 mm | - | 1285 W/m² | - |
| 1777578382 | 20° C | 38% | 1020.6 hPa | 0 mm | - | 1280 W/m² | - |
| 1777578082 | 20° C | 42% | 1020.8 hPa | 0 mm | - | 1281 W/m² | - |
| 1777577783 | 19.44° C | 39% | 1020.8 hPa | 0 mm | - | 1281 W/m² | - |
| 1777577483 | 19.44° C | 40% | 1021 hPa | 0 mm | - | 1287 W/m² | - |
| 1777577182 | 18.89° C | 43% | 1021.2 hPa | 0 mm | - | 1288 W/m² | - |
| 1777576883 | 18.89° C | 43% | 1021.3 hPa | 0 mm | - | 1283 W/m² | - |
| 1777576582 | 18.89° C | 42% | 1021.4 hPa | 0 mm | - | 1283 W/m² | - |
| 1777576283 | 18.33° C | 45% | 1021.5 hPa | 0 mm | - | 1280 W/m² | - |
| 1777575983 | 17.78° C | 43% | 1021.6 hPa | 0 mm | - | 1274 W/m² | - |
| 1777575682 | 17.78° C | 44% | 1021.7 hPa | 0 mm | - | 1273 W/m² | - |
| 1777575383 | 17.22° C | 52% | 1021.7 hPa | 0 mm | - | 1269 W/m² | - |
| 1777575083 | 17.22° C | 42% | 1021.9 hPa | 0 mm | - | 1264 W/m² | - |
| 1777574783 | 17.22° C | 44% | 1021.9 hPa | 0 mm | - | 1257 W/m² | - |
| 1777574482 | 16.67° C | 47% | 1022.1 hPa | 0 mm | - | 1253 W/m² | - |
| 1777574182 | 16.67° C | 47% | 1022.1 hPa | 0 mm | - | 1241 W/m² | - |
| 1777573882 | 16.11° C | 46% | 1022.2 hPa | 0 mm | - | 1236 W/m² | - |
| 1777573582 | 16.11° C | 49% | 1022.2 hPa | 0 mm | - | 1229 W/m² | - |
| 1777573282 | 16.11° C | 47% | 1022.3 hPa | 0 mm | - | 1222 W/m² | - |
* Rain latest hour (hover to see other rain measurements)
** Current wind speed in m/s (hover to see current wind gust speed)